Regional Weather Roundup
Issued by NWS

Home | Current Version | Previous Version | Graphics & Text | Print | Product List | Glossary On
Versions: 1 2 3 4 5 6 7 8 9 10 11 12 13 14 15 16 17 18 19 20 21 22 23 24 25 26 27 28 29 30 31 32 33 34 35 36 37 38 39 40 41 42 43 44 45 46 47 48 49 50
000
ASUS43 KMKX 290000
RWRWI

WISCONSIN REGIONAL WEATHER ROUNDUP
NATIONAL WEATHER SERVICE MILWAUKEE/SULLIVAN WI
700 PM CDT MON JUL 28 2014

NOTE: "FAIR" INDICATES FEW OR NO CLOUDS BELOW 12,000 FEET WITH NO
SIGNIFICANT WEATHER AND/OR OBSTRUCTIONS TO VISIBILITY.

WIZ001-002-006>008-014>016-023>028-290100-
NORTHWEST WISCONSIN

CITY           SKY/WX    TMP DP  RH WIND       PRES   REMARKS
SUPERIOR ARPT  CLOUDY    73  56  56 NW7       30.09S
ASHLAND        CLOUDY    71  55  56 W7        30.08F
6HR MIN TEMP:  70; 6HR MAX TEMP:  75;

HAYWARD        CLOUDY    72  53  51 VRB3      30.10F
6HR MIN TEMP:  71; 6HR MAX TEMP:  74;

SIREN          SUNNY     73  50  45 N7        30.12F
RICE LAKE      SUNNY     71  50  47 W8        30.13F
6HR MIN TEMP:  68; 6HR MAX TEMP:  73;

LADYSMITH      CLOUDY    71  54  55 W8        30.12F
6HR MIN TEMP:  68; 6HR MAX TEMP:  74;

EAU CLAIRE     NOT AVBL
MENOMONIE      CLEAR     73  50  43 NW8       30.12S
6HR MIN TEMP:  72; 6HR MAX TEMP:  75;

NEW RICHMOND   SUNNY     72  52  49 NW5       30.14S
OSCEOLA        SUNNY     73  52  47 NW7       30.16S
$$

WIZ003>005-009-010-017-018-290100-
NORTH CENTRAL WISCONSIN

CITY           SKY/WX    TMP DP  RH WIND       PRES   REMARKS
WOODRUFF       PTSUNNY   69  54  60 NW6       30.09F
RHINELANDER    MOSUNNY   66  53  63 NW5       30.09F
6HR MIN TEMP:  66; 6HR MAX TEMP:  69;

EAGLE RIVER    MOSUNNY   67  49  53 NW8       30.08S
LAND O LAKES   PTSUNNY   67  51  56 NW6       30.09S
PHILLIPS       CLOUDY    65  55  68 CALM      30.10F
6HR MIN TEMP:  65; 6HR MAX TEMP:  71;

TOMAHAWK       CLOUDY    66  53  62 CALM      30.11S
MEDFORD        PTSUNNY   66  53  62 NW7       30.11F
MERRILL        CLOUDY    68  55  63 N3        30.09F
$$

WIZ029-030-035-036-043>047-290100-
CENTRAL WISCONSIN

CITY           SKY/WX    TMP DP  RH WIND       PRES   REMARKS
WAUSAU         CLOUDY    69  51  52 NW8       30.07F
6HR MIN TEMP:  69; 6HR MAX TEMP:  74;

MOSINEE        CLOUDY    68  52  56 NW8       30.10
MARSHFIELD     CLOUDY    70  54  56 NW9       30.10S
6HR MIN TEMP:  70; 6HR MAX TEMP:  75;

STEVENS POINT  CLOUDY    69  51  54 NW5       30.09S
WAUPACA        CLOUDY    72  51  46 N5        30.06F
6HR MIN TEMP:  72; 6HR MAX TEMP:  78;

WAUTOMA        NOT AVBL
WISC RAPIDS    CLOUDY    71  52  50 NW8       30.10S
6HR MIN TEMP:  71; 6HR MAX TEMP:  76;

CAMP DOUGLAS   NOT AVBL
$$

WIZ011>013-019>022-031-037>040-048>050-290100-
NORTHEAST WISCONSIN

CITY           SKY/WX    TMP DP  RH WIND       PRES   REMARKS
ANTIGO         CLOUDY    66  53  63 NW9       30.08F
STURGEON BAY   MOSUNNY   64  50  59 S6        30.04F
6HR MIN TEMP:  63; 6HR MAX TEMP:  70;

GREEN BAY      PTSUNNY   69  53  56 NW5       30.04F
6HR MIN TEMP:  68; 6HR MAX TEMP:  74;

MANITOWOC      NOT AVBL
APPLETON       PTSUNNY   68  50  52 N7        30.06F
CLINTONVILLE   CLOUDY    70  50  49 N5        30.06S
OSHKOSH        CLOUDY    71  51  49 N12       30.05S
6HR MIN TEMP:  69; 6HR MAX TEMP:  74;

$$

WIZ032>034-041-042-053>061-290100-
SOUTHWEST WISCONSIN

CITY           SKY/WX    TMP DP  RH WIND       PRES   REMARKS
LA CROSSE      SUNNY     74  51  44 NW9       30.11F
6HR MIN TEMP:  74; 6HR MAX TEMP:  78;

SPARTA         SUNNY     72  49  45 NW8       30.12S
VIROQUA        FAIR      69  50  50 NW8       30.13F
BOSCOBEL       MOSUNNY   73  52  47 W3        30.11F
6HR MIN TEMP:  73; 6HR MAX TEMP:  78;

PRAIRIE DU CHI PTSUNNY   73  47  40 NW7       30.12S
PLATTEVILLE    FAIR      70  51  51 NW5       30.13F
$$

WIZ056-057-062-063-064-067-068-290100-
SOUTH CENTRAL WISCONSIN

CITY           SKY/WX    TMP DP  RH WIND       PRES   REMARKS
BARABOO/DELLS  PTSUNNY   71  49  45 W3        30.09F
LONE ROCK      NOT AVBL
WATERTOWN      PTSUNNY   72  53  52 W8        30.06F
MADISON        MOSUNNY   72  51  47 VRB7      30.08F
6HR MIN TEMP:  70; 6HR MAX TEMP:  76;

MIDDLETON      FAIR      72  48  42 NW10G18   30.09F
MONROE         CLOUDY    70  52  52 W7        30.10S
JANESVILLE     NOT AVBL
$$

WIZ051-052-058>065-066-070>072-290100-
SOUTHEAST WISCONSIN

CITY           SKY/WX    TMP DP  RH WIND       PRES   REMARKS
MILWAUKEE      PTSUNNY   62  49  62 SE5       30.07F
6HR MIN TEMP:  62; 6HR MAX TEMP:  66;

WAUKESHA       PTSUNNY   70  50  49 NW12      30.07F
MILWAUKEE/TIMM PTSUNNY   64  48  55 SE5       30.06F
RACINE         MOSUNNY   62  49  62 E5        30.08F
6HR MIN TEMP:  62; 6HR MAX TEMP:  67;

BURLINGTON     MOSUNNY   68  53  59 NW12      30.06F
KENOSHA        MOSUNNY   62  52  69 E6        30.07F
6HR MIN TEMP:  62; 6HR MAX TEMP:  71;

FOND DU LAC    CLOUDY    71  51  49 N9        30.05F
6HR MIN TEMP:  68; 6HR MAX TEMP:  74;

SHEBOYGAN      CLOUDY    62  50  64 S3        30.06S
6HR MIN TEMP:  62; 6HR MAX TEMP:  67;

WEST BEND      CLOUDY    63  52  67 SE3       30.05F
JUNEAU         PTSUNNY   70  47  44 NW5       30.07F
$$

LSZ147-162-290100-
LAKE SUPERIOR

STATION/POSITION TIME  TEMP    WIND        PRES    WAVE
                       AIR SEA DIR/SP/G            HT/PER
                 (UTC) (F)     (DEG/KT/KT) (MB)    (FT/S)
W MID LAKE BUOY  2250   53 44  230/  6/  8 1017.7F   1
PORT WING        2300   70     240/  7/ 10 1018.6
SAXON HARBOR     2300           CALM  /  5 1018.3F
$$

LMZ867-665-643>646-290100-
LAKE MICHIGAN

STATION/POSITION TIME  TEMP    WIND        PRES    WAVE
                       AIR SEA DIR/SP/G            HT/PER
                 (UTC) (F)     (DEG/KT/KT) (MB)    (FT/S)
N MID LAKE BUOY  2250   55 52  210/  8/  8 1016.3F   0
NORTHPORT PIER   2300   68     320/  2/  3 1016.6F
SISTER BAY       2225   68     280/  8/  9   N/A
KEWAUNEE LAKESHO 2300   55     190/  6/  7 1018.4F
SHEBOYGAN LAKESH 2300   59     190/  4/  4 1018.2F
PORT WASHINGTON  2340   63     190/  2/  3 1018.3F
ATWATER BUOY     2300   61     120/  4     1019.3F
MILWAUKEE LAKESH 2300   61     100/  4/  4   N/A
S MID LAKE BUOY  2250   60 60  360/ 12/ 14 1018.2F   5/ 6
KENOSHA   LAKESH 2300   61      50/  7/  8 1018.3F
$$

TC  - TEMPERATURE IN CELSIUS
VSB - VISIBILITY IN STATUTE MILES
WCI - WIND CHILL INDEX
HX  - HEAT INDEX



USA.gov is the U.S. government's official web portal to all federal, state and local government web resources and services.